Location: City of Moscow
(46.7306°N, 116.9989°W)
Time: 17:16:18
(UTC+00:00)

ATLAS 2AS CENTAUR R/B - Visible Passes

Search period start: 14 March 2026 00:00
Search period end: 24 March 2026 00:00
Orbit: 1051 x 1160 km, 63.7° (Epoch: 14 March)

Date Brightness Start Highest point End Pass type
(mag) Time Alt. Az. Time Alt. Az. Time Alt. Az.
14 Mar 5.2 02:16:55 10° WNW 02:21:47 21° WSW 02:26:41 10° SSW visible
18 Mar 6.0 13:16:14 10° ESE 13:17:38 11° ESE 13:19:01 10° E visible
21 Mar 5.4 12:49:21 10° SE 12:53:00 15° ESE 12:56:36 10° ENE visible
23 Mar 4.6 13:07:05 10° S 13:13:04 31° ESE 13:18:58 10° NE visible
